Regional Weather Roundup
Issued by NWS

Home | Current Version | Previous Version | Text Only | Print | Product List | Glossary Off
Versions: 1 2 3 4 5 6 7 8 9 10 11 12 13 14 15 16 17 18 19 20 21 22 23 24 25 26 27

000
ASUS45 KCYS 271110
RWRWY

WYOMING REGIONAL WEATHER ROUNDUP
NATIONAL WEATHER SERVICE CHEYENNE WY
500 AM MDT THU APR 27 2017

NOTE:  "FAIR" INDICATES FEW OR NO CLOUDS BELOW 12,000 FEET
WITH NO SIGNIFICANT WEATHER AND/OR OBSTRUCTIONS TO VISIBILITY.

WYZ001-271200-
YELLOWSTONE NATIONAL PARK

CITY           SKY/WX    TMP DP  RH WIND       PRES   REMARKS
LK YELLOWSTONE   N/A     26  26 100 CALM      29.58F
W YELLOWSTONE  NOT AVBL

$$
WYZ002>013-054>058-071-098>099-271200-
NORTHERN WYOMING

CITY           SKY/WX    TMP DP  RH WIND       PRES   REMARKS
JACKSON        CLOUDY    32  32 100 NE5       29.58S VSB 1/2 WCI  27
CODY           LGT SNOW  33  31  92 NW6       29.58S FOG     WCI  28
GREYBULL       LGT RAIN  42  37  82 NW15      29.52F
WORLAND        CLOUDY    41  39  93 N6        29.52S
SHERIDAN       FOG       31  30  96 N3        29.56F VSB 1/2
BUFFALO        CLOUDY    34  28  79 N8        29.54S WCI  27
GILLETTE       MOCLDY    33  32  96 SE8       29.55S WCI  26
HULETT         FAIR      34  28  80 E8        29.59F WCI  27
NEWCASTLE      FAIR      32  32 100 CALM      29.60S

$$
WYZ014>020-022>026-101>103-271200-
CENTRAL WYOMING

CITY           SKY/WX    TMP DP  RH WIND       PRES   REMARKS
BIG PINEY      CLOUDY    29  29 100 CALM      29.60R
PINEDALE       PTSUNNY   30  30 100 NE5       29.59F WCI  25
DUBOIS         LGT SNOW  32  30  93 N13       29.53S WCI  22
LANDER         FAIR      36  33  89 CALM      29.51F
RIVERTON       FAIR      36  33  89 NW7       29.51F WCI  30
CASPER         LGT RAIN  38  36  92 SW6       29.53F WCI  33
DOUGLAS        CLOUDY    36  34  92 SE5       29.55F WCI  32

$$
WYZ021-027>030-104>119-271200-
SOUTHERN WYOMING

CITY           SKY/WX    TMP DP  RH WIND       PRES   REMARKS
EVANSTON       FAIR      31  28  89 W14       29.70S WCI  21
KEMMERER         N/A     30  28  93 W28       29.64F WCI  16
FORT BRIDGER   FAIR      32  32 100 W17       29.69S WCI  21
ROCK SPRINGS   LGT SNOW  33  31  92 W21G28    29.63R VSB 1   WCI  21
DIXON          LGT RAIN  38  36  92 SW9G17    29.64S WCI  31
RAWLINS        CLOUDY    35  32  88 W12       29.58F WCI  27
SARATOGA       CLOUDY    34  34 100 SW3       29.60S
LARAMIE        CLOUDY    33  32  96 SE6       29.58F WCI  28
CHEYENNE       CLOUDY    38  34  85 SW15      29.58F WCI  29
TORRINGTON     FAIR      36  35  96 E7        29.55F WCI  30
PINE BLUFFS    CLOUDY    41  36  81 SW7       29.58F

$$




USA.gov is the U.S. government's official web portal to all federal, state and local government web resources and services.